#timestamp,LO_Frequency,Hit 
1504893615.2,286046984.9,N
1504893635.0,286046982.9,N
1504893635.9,286046982.9,N
1504893655.8,286046981.1,N
1504893675.6,286046979.7,P
1504893695.4,286046986.9,N
1504893715.3,286046989.4,N
1504893735.1,286046987.1,P
1504893755.8,286047001.5,P
1504893775.7,286047002.9,N
1504893795.5,286047004.1,N
1504893815.3,286047004.9,N
1504893835.2,286047001.4,N
1504893855.9,286047007.4,N
1504893875.7,286047007.1,N
1504893895.6,286047008.9,N
1504893915.4,286047008.7,N
1504893935.2,286047008.6,N
1504893955.0,286047009.0,N
1504893955.9,286047009.0,N
1504893975.8,286047007.3,N
1504893995.6,286047005.9,N
1504894015.4,286047002.3,N
1504894035.3,286047001.3,N
1504894055.1,286047008.3,N
1504894075.8,286047009.4,N
1504894095.7,286047016.9,N
1504894115.5,286047018.8,N
1504894135.3,286047021.2,N
1504894155.2,286047021.7,N
1504894175.9,286047022.7,N
1504894195.7,286047023.0,N
1504894215.6,286047025.2,N
1504894235.4,286047024.3,N
1504894255.2,286047021.1,N
1504894275.0,286047022.3,N
1504894276.0,286047022.3,N
1504894295.8,286047024.0,N
1504894315.6,286047026.4,P
1504894335.5,286047009.4,N
1504894355.3,286047009.3,N
1504894375.1,286047009.6,N
1504894395.9,286047008.2,N
1504894415.7,286047010.2,N
1504894435.5,286047010.1,N
1504894455.3,286047011.9,N
1504894475.2,286047009.4,N
1504894495.0,286047011.7,N
1504894495.9,286047011.7,N
1504894515.8,286047016.3,P
1504894535.6,286047004.1,N
1504894555.4,286047003.9,N
1504894575.3,286047001.9,N
1504894595.1,286047002.9,N
1504894596.0,286047002.9,N
1504894615.8,286047006.3,N
1504894635.7,286047007.7,N
1504894655.5,286047009.5,N
1504894675.3,286047008.2,N
1504894695.1,286047008.1,N
1504894715.9,286047006.4,N
1504894735.7,286047003.0,N
1504894755.5,286047003.4,N
1504894775.4,286047004.0,N
1504894795.2,286047003.4,N
1504894815.0,286047003.8,N
1504894815.9,286047003.8,N
1504894835.8,286047003.4,N
1504894855.6,286047001.6,N
1504894875.4,286047002.3,N
1504894895.3,286047001.5,N
1504894915.1,286046999.8,N
1504894916.0,286046999.8,N
1504894935.8,286047000.6,N
1504894955.7,286046998.5,N
1504894975.5,286046998.8,N
1504894995.3,286046998.4,N
1504895015.1,286046999.4,N
1504895035.9,286046996.9,N
1504895055.7,286046998.9,N
1504895075.5,286047005.4,N
1504895095.4,286047007.5,N
1504895115.2,286047006.8,N
1504895135.0,286047006.7,N
1504895135.9,286047006.7,N
1504895155.8,286047003.5,N
1504895175.6,286047003.9,N
1504895195.4,286047003.1,N
1504895215.3,286047001.0,N
1504895235.1,286046996.5,N
1504895236.0,286046996.5,N
1504895255.8,286046996.9,N
1504895275.7,286047000.9,N
1504895295.5,286046996.9,N
1504895315.3,286046997.3,N
1504895335.2,286046997.7,N
1504895355.9,286046997.7,N
1504895375.7,286046997.8,N
1504895395.5,286046996.1,N
1504895415.4,286046994.8,N
1504895435.2,286046990.7,N
1504895455.0,286046990.0,N
1504895455.9,286046990.0,N
1504895475.8,286046984.0,P
1504895495.6,286046986.1,N
1504895515.5,286046987.7,N
1504895535.3,286046988.1,N
1504895555.1,286046986.7,N
1504895575.9,286046984.3,P
1504895595.7,286046995.8,N
1504895615.5,286046994.7,N
1504895635.3,286046993.5,N
1504895655.2,286046996.0,N
1504895675.0,286046996.0,N
1504895675.9,286046996.0,N
1504895695.7,286046994.3,N
1504895715.6,286046991.2,N
1504895735.4,286046989.7,N
1504895755.2,286046987.6,P
1504895775.1,286046995.1,N
1504895776.0,286046995.1,N
1504895795.8,286046993.8,N
1504895815.6,286046995.8,N
1504895835.5,286046996.1,N
1504895855.3,286046992.2,N
1504895875.1,286046993.0,N
1504895895.9,286046992.2,P
1504895915.7,286047004.2,P
1504895935.5,286047004.2,N
1504895955.4,286047005.7,N
1504895975.2,286047005.1,N
1504895995.0,286047009.0,N
1504895995.9,286047009.0,N
1504896015.8,286047013.7,N
1504896035.6,286047014.7,N
1504896055.4,286047017.3,N
1504896075.3,286047020.4,N
1504896095.1,286047018.5,N
1504896096.0,286047018.5,N
1504896115.8,286047021.5,N
1504896135.7,286047020.5,N
1504896155.5,286047024.6,N
1504896175.3,286047024.7,N
1504896195.1,286047024.6,N
1504896215.9,286047024.8,N
1504896235.7,286047023.9,N
1504896255.5,286047024.1,N
1504896275.4,286047022.4,N
1504896295.2,286047026.4,N
1504896315.0,286047029.8,P
1504896316.0,286047029.8,P
1504896335.8,286047015.3,N
1504896355.6,286047011.2,N
1504896375.4,286047012.7,N
1504896395.3,286047013.4,N
1504896415.1,286047011.4,N
1504896435.8,286047013.5,N
1504896455.7,286047013.4,N
1504896475.5,286047015.5,N
1504896495.3,286047016.2,N
1504896515.2,286047017.2,N
1504896535.9,286047017.9,P
1504896555.7,286047000.2,N
1504896575.6,286047000.2,N
1504896595.4,286047002.0,N
1504896615.2,286047002.6,N
1504896635.1,286047002.1,N
1504896636.0,286047002.1,N
1504896655.8,286047000.4,N
1504896675.6,286047000.4,N
1504896695.5,286046999.8,N
1504896715.3,286047002.6,N
1504896735.1,286047001.6,N
1504896755.8,286047000.6,N
1504896775.7,286046998.4,N
1504896795.5,286046998.7,N
1504896815.3,286047000.9,N
1504896835.2,286047002.6,N
1504896855.0,286046996.5,N
1504896855.9,286046996.5,N
1504896875.7,286046999.5,N
1504896895.6,286046999.3,N
1504896915.4,286046994.9,N
1504896935.2,286046993.5,N
1504896955.1,286046992.1,N
1504896956.0,286046992.1,N
1504896975.8,286046994.9,N
1504896995.6,286046999.1,N
1504897015.5,286047001.0,N
1504897035.3,286046998.6,N
1504897055.1,286047001.0,N
1504897075.9,286046996.5,N
1504897095.7,286046997.0,N
1504897115.5,286046995.0,N
1504897135.3,286046994.0,N
1504897155.2,286046996.1,N
1504897175.0,286046991.9,N
1504897175.9,286046991.9,N
1504897195.7,286046993.1,N
